Tracking 25648 objects as of 16-May-2022
HD Live streaming from Space Station
objects crossing your sky now

COSMOS 2251 DEB

Track COSMOS 2251 DEB now!
10-day predictions


NORAD ID: 35065
Int'l Code: 1993-036AHU
Perigee: 751.1 km
Apogee: 782.2 km
Inclination: 74.0 °
Period: 100.0 minutes
Semi major axis: 7137 km
RCS: 0.014 m2 (small)
Launch date: June 16, 1993
Source: Commonwealth of Independent States (former USSR) (CIS)
Launch site: PLESETSK MISSILE AND SPACE COMPLEX (PKMTR)

Note: This is SATELLITE DEBRIS
aabbcc
Your satellite tracking list
Your tracking list is empty




NASA's NSSDC Master Catalog

Two Line Element Set (TLE):
1 35065U 93036AHU 22135.62777899  .00001096  00000-0  35759-3 0  9996
2 35065  74.0227 100.5840 0021838 186.0390 174.0505 14.39696126495063
Source of the keplerian elements: AFSPC